Lid_Strength_Index
2 1 1 1 1 1 1 1 1 1 1 1 1 1 1 1 1 1 1 1 1 1 1 1 2 1 1 1 1 1 2 2 4 3 2 2 2 2 1 1 1 1 1
2 2 2 1 1 1 1 1 1 1 1 1 1 1 1 2 3 2 1 5 4 4 3 3 2 1 1 1 1 2 2 2 3 4 2 3 2 2 2 1 1 1 1
2 2 2 1 1 2 1 1 1 1 1 1 1 1 2 2 3 2 3 4 3 2 2 2 2 1 2 2 2 2 2 2 2 3 3 3 2 2 2 2 2 2 1
2 2 2 2 2 1 1 1 1 1 1 1 1 1 1 2 2 2 3 4 3 1 1 1 1 2 2 2 2 2 2 2 2 3 3 3 3 3 2 3 3 3 2
2 2 2 2 1 1 1 1 1 1 1 1 1 1 1 1 1 3 3 4 4 2 1 1 1 1 2 1 1 2 2 2 2 3 3 3 3 4 3 3 3 3 3
3 2 2 2 1 2 1 1 1 1 2 1 1 1 2 1 3 4 3 3 3 3 2 2 1 1 1 2 1 2 2 2 3 3 3 4 3 3 3 3 4 4 5
2 2 2 2 2 2 1 2 2 2 2 2 2 2 2 1 4 5 4 3 3 3 4 2 2 1 1 1 2 4 4 4 3 2 3 3 3 2 3 4 4 4 4
3 3 2 2 2 2 2 2 2 2 2 2 2 2 2 2 5 6 4 3 3 4 3 2 2 1 1 2 2 2 1 1 2 2 1 1 1 2 2 3 3 3 4
5 4 3 2 2 2 2 2 2 2 2 2 2 2 2 2 6 7 6 3 3 3 3 2 2 1 2 4 2 3 2 2 3 5 4 4 5 5 3 3 4 4 4
4 3 2 2 2 2 2 2 3 2 2 2 2 2 4 3 8 8 6 2 3 2 2 3 3 2 5 6 3 3 3 2 2 1 2 4 5 4 5 1 2 4 4
4 2 2 2 2 2 2 2 2 3 2 2 2 2 3 4 6 9 8 2 2 2 2 3 2 6 7 7 7 2 3 3 3 1 2 1 2 3 3 3 2 2 3
2 2 2 2 2 1 2 3 2 3 3 3 3 3 4 4 6 8 8 6 5 3 3 2 5 9 9 9 9 8 8 6 2 2 2 3 3 2 2 2 2 2 2
3 2 3 2 2 2 3 4 4 4 3 4 4 5 5 5 3 9 9 8 6 3 3 7 10 11 10 8 9 8 7 2 3 3 4 4 3 2 2 2 2 1 1
2 2 3 3 3 3 4 4 5 6 5 5 6 7 6 7 8 6 3 3 4 3 4 4 5 6 7 6 4 4 3 3 3 4 4 3 3 2 3 3 3 2 3
3 2 3 3 4 4 4 5 5 6 8 7 6 7 8 7 9 12 11 5 4 5 3 2 3 3 3 3 3 3 2 2 3 3 3 3 3 3 4 4 3 3 3
3 3 3 4 5 4 3 3 6 8 10 11 13 10 9 12 13 13 13 13 12 10 4 4 3 3 3 3 3 3 3 4 4 5 5 4 5 5 5 5 5 5 5
3 5 6 5 5 6 3 4 4 4 8 10 11 11 12 12 11 12 13 13 12 10 4 5 4 4 3 4 4 3 4 5 5 4 5 5 5 5 5 5 5 5 5
3 4 4 5 5 6 6 6 4 4 4 3 6 9 11 12 12 11 10 7 3 4 4 3 3 4 4 3 3 4 5 5 5 5 5 5 5 5 5 5 5 6 5
3 3 3 3 4 5 4 4 4 5 4 4 4 5 7 9 10 8 8 4 4 4 4 3 3 3 3 3 3 3 3 3 3 3 3 3 3 3 4 5 5 7 6
3 3 3 3 3 3 4 4 4 4 5 4 4 4 4 4 4 4 3 3 3 4 4 4 4 3 3 3 3 3 3 3 3 3 3 3 3 3 3 3 3 4 4
5 3 3 3 4 5 5 4 4 3 3 4 5 6 8 4 5 5 5 5 4 4 4 5 6 5 5 4 3 3 4 5 5 4 4 3 3 3 3 3 4 4 4
5 6 6 6 6 5 5 4 4 3 3 3 4 5 8 5 5 5 5 4 4 4 4 5 7 7 7 7 6 6 7 7 7 6 5 5 4 4 4 4 4 4 4
6 7 8 8 7 6 5 5 5 5 4 4 4 4 4 5 5 5 5 5 5 5 5 5 6 7 8 8 7 8 8 9 9 8 8 7 6 6 4 4 4 4 4
8 8 9 9 8 8 8 7 8 8 7 7 6 5 5 5 6 6 6 7 7 6 5 6 7 8 8 9 9 9 8 8 8 8 6 6 6 7 6 6 5 4 3
9 9 9 10 9 8 8 9 9 9 9 9 9 9 9 7 7 6 7 7 7 8 8 7 8 9 9 9 9 11 15 16 13 13 8 7 8 7 7 8 8 7 5
9 9 10 10 10 10 10 10 10 10 10 10 10 10 10 9 9 9 9 9 8 8 8 8 7 8 8 9 11 13 15 15 14 14 11 9 9 9 9 9 9 8 8